GW7024 Weather Reports


time (UTC)temp
F
wind
direction
speed
knots
gust
knots
rain 1hr
in
rain 24hr
in
rain mn
in
humidity
%
barometer
mb
20260906162140 76 267 3.5 5.2 0.00 0.00 0.00 76 1020.2
20260906161635 77 276 3.5 3.5 0.00 0.00 0.00 75 1020.0
20260906161134 76 221 0.9 1.7 0.00 0.00 0.00 78 1020.0
20260906160633 75 257 3.5 3.5 0.00 0.00 0.00 77 1020.1
20260906160133 75 291 4.3 5.2 0.00 0.00 0.00 78 1020.0
20260906155630 75 255 2.6 2.6 0.00 0.00 0.00 79 1020.1
20260906155126 75 278 2.6 3.5 0.00 0.00 0.00 78 1020.1
20260906154621 75 263 2.6 2.6 0.00 0.00 0.00 79 1020.2
20260906154120 74 250 3.5 3.5 0.00 0.00 0.00 80 1020.3
20260906153619 73 262 3.5 3.5 0.00 0.00 0.00 82 1020.2
20260906153114 73 271 4.3 6.1 0.00 0.00 0.00 81 1020.3
20260906152609 74 233 3.5 3.5 0.00 0.00 0.00 81 1020.3
20260906152103 73 267 3.5 3.5 0.00 0.00 0.00 81 1020.1
20260906151558 73 260 1.7 2.6 0.00 0.00 0.00 82 1020.1
20260906151054 73 251 3.5 3.5 0.00 0.00 0.00 82 1020.2
20260906150549 73 291 5.2 7.0 0.00 0.00 0.00 82 1020.1
20260906150044 72 251 2.6 2.6 0.00 0.00 0.00 85 1020.0
20260906145543 72 259 2.6 3.5 0.00 0.00 0.00 86 1020.3
20260906145038 71 277 2.6 3.5 0.00 0.00 0.00 86 1020.1
20260906144532 71 262 1.7 2.6 0.00 0.00 0.00 87 1020.1
20260906144027 71 279 4.3 5.2 0.00 0.00 0.00 87 1020.2
20260906143522 71 266 2.6 3.5 0.00 0.00 0.00 88 1020.2
20260906143020 70 241 1.7 2.6 0.00 0.00 0.00 88 1020.2
20260906142519 70 255 1.7 2.6 0.00 0.00 0.00 88 1020.2
20260906142015 70 265 3.5 5.2 0.00 0.00 0.00 88 1020.3
20260906141513 70 266 4.3 5.2 0.00 0.00 0.00 88 1020.2
20260906141008 70 266 1.7 2.6 0.00 0.00 0.00 89 1020.2
20260906140503 70 258 4.3 6.1 0.00 0.00 0.00 89 1020.1
20260906140001 70 241 1.7 2.6 0.00 0.00 0.00 89 1020.0
20260906135459 70 263 3.5 3.5 0.00 0.00 0.00 90 1020.1
20260906134954 69 256 2.6 2.6 0.00 0.00 0.00 90 1020.0
20260906134451 69 269 2.6 3.5 0.00 0.00 0.00 91 1019.8
20260906133951 69 276 3.5 3.5 0.00 0.00 0.00 91 1019.8
20260906133446 69 279 2.6 2.6 0.00 0.00 0.00 92 1019.8
20260906132942 69 237 1.7 2.6 0.00 0.00 0.00 92 1020.0
20260906132437 68 236 1.7 1.7 0.00 0.00 0.00 92 1019.8
20260906131932 68 274 1.7 1.7 0.00 0.00 0.00 92 1020.0
20260906131428 68 230 1.7 2.6 0.00 0.00 0.00 93 1019.8
20260906130923 68 261 1.7 1.7 0.00 0.00 0.00 93 1019.8
20260906130422 68 251 2.6 3.5 0.00 0.00 0.00 94 1019.9
20260906125923 68 250 1.7 2.6 0.00 0.00 0.00 94 1019.9
20260906125420 68 246 0.9 1.7 0.00 0.00 0.00 95 1019.8
20260906124919 68 225 0.9 0.9 0.00 0.00 0.00 95 1019.8
20260906124415 67 233 1.7 1.7 0.00 0.00 0.00 95 1019.7
20260906123910 67 240 1.7 1.7 0.00 0.00 0.00 95 1019.8
20260906123410 67 252 0.9 1.7 0.00 0.00 0.00 96 1019.7
20260906122909 67 265 2.6 2.6 0.00 0.00 0.00 96 1019.5
20260906122404 67 245 1.7 1.7 0.00 0.00 0.00 96 1019.5
20260906121901 67 224 0.0 0.0 0.00 0.00 0.00 96 1019.4
20260906121357 67 238 0.9 0.9 0.00 0.00 0.00 96 1019.3
20260906120853 66 244 0.9 1.7 0.00 0.00 0.00 96 1019.3
20260906120348 66 237 0.9 0.9 0.00 0.00 0.00 97 1019.3
20260906115845 66 253 1.7 1.7 0.00 0.00 0.00 97 1019.3
20260906115340 65 224 0.0 0.0 0.00 0.00 0.00 96 1019.3
20260906114839 65 222 0.0 0.0 0.00 0.00 0.00 96 1019.2
20260906114334 65 222 0.0 0.0 0.00 0.00 0.00 96 1019.2
20260906113830 65 223 0.0 0.0 0.00 0.00 0.00 96 1019.3
20260906113329 65 218 0.0 0.0 0.00 0.00 0.00 96 1019.2
20260906112824 65 218 0.0 0.0 0.00 0.00 0.00 96 1019.3
20260906112320 65 218 0.0 0.0 0.00 0.00 0.00 96 1019.3
20260906111820 65 218 0.0 0.0 0.00 0.00 0.00 96 1019.2
20260906111320 65 218 0.0 0.0 0.00 0.00 0.00 96 1019.2
20260906110815 65 218 0.0 0.0 0.00 0.00 0.00 96 1019.0
20260906110311 65 211 0.0 0.0 0.00 0.00 0.00 96 1019.0
20260906105809 66 220 0.0 0.0 0.00 0.00 0.00 96 1018.8
20260906105306 66 222 0.0 0.0 0.00 0.00 0.00 96 1018.5
20260906104801 66 218 0.0 0.0 0.00 0.00 0.00 96 1018.7
20260906104259 66 217 0.0 0.0 0.00 0.00 0.00 96 1018.9
20260906103758 66 220 0.0 0.0 0.00 0.00 0.00 96 1018.6
20260906103257 67 221 0.0 0.0 0.00 0.00 0.00 96 1018.8
20260906102753 66 241 0.9 0.9 0.00 0.00 0.00 97 1018.7
20260906102252 65 218 0.0 0.0 0.00 0.00 0.00 96 1018.7
20260906101747 66 216 0.0 0.0 0.00 0.00 0.00 96 1018.7
20260906101242 66 216 0.0 0.0 0.00 0.00 0.00 96 1018.7
20260906100738 66 223 0.0 0.0 0.00 0.00 0.00 96 1018.6
20260906100237 66 214 0.0 0.0 0.00 0.00 0.00 95 1018.3
20260906095732 66 222 0.0 0.0 0.00 0.00 0.00 96 1018.3
20260906095228 66 222 0.0 0.0 0.00 0.00 0.00 95 1018.3
20260906094727 66 220 0.0 0.0 0.00 0.00 0.00 96 1018.2
20260906094222 66 222 0.0 0.0 0.00 0.00 0.00 95 1018.1
20260906093719 66 217 0.0 0.0 0.00 0.00 0.00 95 1018.1
20260906093214 66 215 0.0 0.0 0.00 0.00 0.00 95 1018.1
20260906092709 66 220 0.0 0.0 0.00 0.00 0.00 95 1017.9
20260906092208 66 218 0.0 0.0 0.00 0.00 0.00 95 1018.0
20260906091704 66 219 0.0 0.0 0.00 0.00 0.00 95 1018.0
20260906091201 66 210 0.0 0.0 0.00 0.00 0.00 94 1018.1
20260906090656 66 218 0.0 0.0 0.00 0.00 0.00 94 1018.0
20260906090156 67 218 0.0 0.0 0.00 0.00 0.00 94 1018.1
20260906085655 67 218 0.0 0.0 0.00 0.00 0.00 95 1017.9
20260906085154 66 219 0.0 0.0 0.00 0.00 0.00 94 1017.8
20260906084649 66 219 0.0 0.0 0.00 0.00 0.00 94 1018.0
20260906084148 67 217 0.0 0.0 0.00 0.00 0.00 94 1017.8
20260906083643 67 220 0.0 0.0 0.00 0.00 0.00 94 1018.0
20260906083139 68 216 0.0 0.0 0.00 0.00 0.00 94 1018.1
20260906082634 68 223 0.0 0.0 0.00 0.00 0.00 95 1017.8
20260906082130 68 233 0.9 0.9 0.00 0.00 0.00 96 1018.1
20260906081626 68 226 0.0 0.9 0.00 0.00 0.00 96 1018.0
20260906081120 68 220 0.0 0.0 0.00 0.00 0.00 95 1018.1
20260906080617 68 234 0.9 0.9 0.00 0.00 0.00 96 1018.0
20260906080113 66 249 0.9 1.7 0.00 0.00 0.00 96 1018.0
20260906075612 66 217 0.0 0.0 0.00 0.00 0.00 96 1018.1
20260906075107 66 216 0.0 0.0 0.00 0.00 0.00 95 1018.1
20260906074603 66 216 0.0 0.0 0.00 0.00 0.00 95 1018.0
20260906074101 66 216 0.0 0.0 0.00 0.00 0.00 95 1018.1
20260906073556 66 215 0.0 0.0 0.00 0.00 0.00 95 1018.2
20260906073053 66 219 0.0 0.0 0.00 0.00 0.00 95 1018.0
20260906072552 66 219 0.0 0.0 0.00 0.00 0.00 95 1018.2
20260906072049 67 216 0.0 0.0 0.00 0.00 0.00 95 1018.1
20260906071545 67 219 0.0 0.0 0.00 0.00 0.00 95 1018.2
20260906071039 67 217 0.0 0.0 0.00 0.00 0.00 95 1018.2
20260906070536 67 217 0.0 0.0 0.00 0.00 0.00 95 1018.2
20260906070031 67 217 0.0 0.0 0.00 0.00 0.00 95 1018.2
20260906065531 67 217 0.0 0.0 0.00 0.00 0.00 95 1018.2
20260906065027 67 217 0.0 0.0 0.00 0.00 0.00 95 1018.4
20260906064523 67 216 0.0 0.0 0.00 0.00 0.00 95 1018.4
20260906064023 67 216 0.0 0.0 0.00 0.00 0.00 94 1018.2
20260906063518 67 216 0.0 0.0 0.00 0.00 0.00 94 1018.4
20260906063014 67 216 0.0 0.0 0.00 0.00 0.00 94 1018.3
20260906062509 67 216 0.0 0.0 0.00 0.00 0.00 94 1018.5
20260906062003 68 215 0.0 0.0 0.00 0.00 0.00 94 1018.6
20260906061459 68 217 0.0 0.0 0.00 0.00 0.00 94 1018.5
20260906060953 68 217 0.0 0.0 0.00 0.00 0.00 94 1018.5
20260906060450 68 217 0.0 0.0 0.00 0.00 0.00 94 1018.6
20260906055947 68 217 0.0 0.0 0.00 0.00 0.00 94 1018.4
20260906055442 68 217 0.0 0.0 0.00 0.00 0.00 94 1018.4
20260906054937 68 217 0.0 0.0 0.00 0.00 0.00 94 1018.3
20260906054432 68 217 0.0 0.0 0.00 0.00 0.00 94 1018.3
20260906053928 68 217 0.0 0.0 0.00 0.00 0.00 93 1018.3
20260906053424 68 217 0.0 0.0 0.00 0.00 0.00 93 1018.5
20260906052920 68 216 0.0 0.0 0.00 0.00 0.00 93 1018.4
20260906052416 69 218 0.0 0.0 0.00 0.00 0.00 93 1018.4
20260906051912 69 218 0.0 0.0 0.00 0.00 0.00 93 1018.4
20260906051412 69 219 0.0 0.0 0.00 0.00 0.00 93 1018.5
20260906050908 69 219 0.0 0.0 0.00 0.00 0.00 93 1018.5
20260906050408 69 215 0.0 0.0 0.00 0.00 0.00 92 1018.4
20260906045907 69 217 0.0 0.0 0.00 0.00 0.00 93 1018.3
20260906045406 69 217 0.0 0.0 0.00 0.00 0.00 93 1018.4
20260906044902 69 217 0.0 0.0 0.00 0.00 0.00 92 1018.4
20260906044403 69 217 0.0 0.0 0.00 0.00 0.00 92 1018.4
20260906043858 69 217 0.0 0.0 0.00 0.00 0.00 92 1018.3
20260906043355 69 217 0.0 0.0 0.00 0.00 0.00 92 1018.4
20260906042855 69 217 0.0 0.0 0.00 0.00 0.00 92 1018.4
20260906042353 69 217 0.0 0.0 0.00 0.00 0.00 92 1018.6
20260906041849 69 215 0.0 0.0 0.00 0.00 0.00 92 1018.5
20260906041345 70 217 0.0 0.0 0.00 0.00 0.00 92 1018.5
20260906040845 70 217 0.0 0.0 0.00 0.00 0.00 91 1018.4
20260906040340 70 218 0.0 0.0 0.00 0.00 0.00 91 1018.5
20260906035835 70 218 0.0 0.0 0.00 0.00 0.00 91 1018.5
20260906035331 70 216 0.0 0.0 0.00 0.00 0.00 91 1018.5
20260906034827 70 215 0.0 0.0 0.00 0.00 0.00 90 1018.4
20260906034327 70 215 0.0 0.0 0.00 0.00 0.00 90 1018.4
20260906033823 70 215 0.0 0.0 0.00 0.00 0.00 90 1018.4
20260906033321 71 213 0.0 0.0 0.00 0.00 0.00 90 1018.5
20260906032818 71 218 0.0 0.0 0.00 0.00 0.00 90 1018.4
20260906032314 71 218 0.0 0.0 0.00 0.00 0.00 90 1018.6
20260906031809 70 217 0.0 0.0 0.00 0.00 0.00 90 1018.8
20260906031304 71 215 0.0 0.0 0.00 0.00 0.00 89 1018.9
20260906030804 70 225 0.0 0.0 0.00 0.00 0.00 90 1018.6
20260906030259 70 215 0.0 0.0 0.00 0.00 0.00 89 1018.7
20260906025759 71 212 0.0 0.0 0.00 0.00 0.00 89 1018.7
20260906025253 71 212 0.0 0.0 0.00 0.00 0.00 88 1018.5
20260906024752 71 218 0.0 0.0 0.00 0.00 0.00 88 1018.5
20260906024251 71 218 0.0 0.0 0.00 0.00 0.00 88 1018.3
20260906023747 71 218 0.0 0.0 0.00 0.00 0.00 88 1018.4
20260906023242 71 216 0.0 0.0 0.00 0.00 0.00 87 1018.4
20260906022738 71 215 0.0 0.0 0.00 0.00 0.00 87 1018.1
20260906022233 72 216 0.0 0.0 0.00 0.00 0.00 86 1018.0
20260906021729 72 211 0.0 0.0 0.00 0.00 0.00 85 1017.7
20260906021228 72 220 0.0 0.0 0.00 0.00 0.00 86 1017.5
20260906020723 73 219 0.0 0.0 0.00 0.00 0.00 85 1017.4
20260906020217 73 225 0.0 0.0 0.00 0.00 0.00 84 1017.2
20260906015712 74 218 0.0 0.0 0.00 0.00 0.00 83 1017.2
20260906015210 75 213 0.0 0.0 0.00 0.00 0.00 80 1016.9
20260906014710 75 221 0.0 0.0 0.00 0.00 0.00 79 1017.0
20260906014207 76 223 0.0 0.0 0.00 0.00 0.00 78 1016.7
20260906013702 76 220 0.0 0.0 0.00 0.00 0.00 77 1016.8
20260906013157 77 221 0.0 0.0 0.00 0.00 0.00 76 1016.9
20260906012657 77 219 0.0 0.0 0.00 0.00 0.00 74 1016.7
20260906012152 78 225 0.0 0.0 0.00 0.00 0.00 73 1016.4
20260906011648 78 250 1.7 1.7 0.00 0.00 0.00 73 1016.3
20260906011148 78 261 1.7 2.6 0.00 0.00 0.00 73 1016.1
20260906010643 78 270 2.6 2.6 0.00 0.00 0.00 72 1016.1
20260906010139 78 248 1.7 2.6 0.00 0.00 0.00 72 1016.0
20260906005639 79 254 1.7 2.6 0.00 0.00 0.00 71 1016.0
20260906005138 79 238 1.7 1.7 0.00 0.00 0.00 70 1016.0
20260906004637 79 243 1.7 2.6 0.00 0.00 0.00 70 1016.0
20260906004132 79 246 1.7 1.7 0.00 0.00 0.00 69 1016.0
20260906003627 79 260 1.7 1.7 0.00 0.00 0.00 68 1016.1
20260906003123 79 251 1.7 1.7 0.00 0.00 0.00 68 1015.9
20260906002618 79 282 3.5 3.5 0.00 0.00 0.00 68 1016.1
20260906002113 80 252 1.7 2.6 0.00 0.00 0.00 67 1016.0
20260906001609 80 249 3.5 3.5 0.00 0.00 0.00 67 1015.9
20260906001108 80 240 1.7 1.7 0.00 0.00 0.00 67 1015.8
20260906000605 80 245 1.7 1.7 0.00 0.00 0.00 66 1015.7
20260906000059 80 246 3.5 5.2 0.00 0.00 0.00 66 1015.9
20260905235558 81 242 2.6 2.6 0.00 0.00 0.00 66 1016.0
20260905235054 81 264 1.7 2.6 0.00 0.00 0.00 66 1015.8
20260905234549 81 241 3.5 5.2 0.00 0.00 0.00 66 1015.9
20260905234044 82 226 1.7 1.7 0.00 0.00 0.00 64 1015.6
20260905233544 82 250 4.3 6.1 0.00 0.00 0.00 63 1015.6
20260905233044 82 231 1.7 1.7 0.00 0.00 0.00 64 1015.5
20260905232539 83 242 3.5 3.5 0.00 0.00 0.00 64 1015.5
20260905232035 83 247 2.6 3.5 0.00 0.00 0.00 63 1015.5
20260905231530 83 238 0.9 1.7 0.00 0.00 0.00 63 1015.3
20260905231026 83 273 3.5 5.2 0.00 0.00 0.00 63 1015.5
20260905230525 83 264 2.6 2.6 0.00 0.00 0.00 62 1015.5
20260905230024 84 248 2.6 3.5 0.00 0.00 0.00 62 1015.7
20260905225519 84 247 2.6 2.6 0.00 0.00 0.00 63 1015.6
20260905225014 84 235 2.6 2.6 0.00 0.00 0.00 62 1015.4
20260905224509 85 256 3.5 3.5 0.00 0.00 0.00 61 1015.5
20260905224008 84 152 0.0 0.9 0.00 0.00 0.00 62 1015.5
20260905223506 85 276 4.3 6.1 0.00 0.00 0.00 60 1015.4
20260905223002 85 247 5.2 6.1 0.00 0.00 0.00 61 1015.3
20260905222501 85 251 1.7 1.7 0.00 0.00 0.00 60 1015.5
20260905221956 86 249 1.7 2.6 0.00 0.00 0.00 58 1015.4
20260905221453 85 237 0.0 0.0 0.00 0.00 0.00 61 1015.6
20260905220949 86 250 5.2 6.1 0.00 0.00 0.00 58 1015.5
20260905220445 85 230 1.7 2.6 0.00 0.00 0.00 60 1015.4
20260905215944 85 247 3.5 3.5 0.00 0.00 0.00 59 1015.4
20260905215440 85 247 0.9 0.9 0.00 0.00 0.00 59 1015.6
20260905214936 85 234 2.6 2.6 0.00 0.00 0.00 59 1015.5
20260905214432 86 241 4.3 6.1 0.00 0.00 0.00 58 1015.6
20260905213931 86 254 3.5 3.5 0.00 0.00 0.00 58 1015.8
20260905213428 87 245 0.0 0.9 0.00 0.00 0.00 57 1015.8
20260905212923 87 224 0.9 0.9 0.00 0.00 0.00 58 1015.9
20260905212418 86 237 0.9 0.9 0.00 0.00 0.00 59 1016.0
20260905211917 85 245 0.9 1.7 0.00 0.00 0.00 62 1016.1
20260905211413 84 236 0.9 0.9 0.00 0.00 0.00 63 1016.2
20260905210909 84 249 1.7 2.6 0.00 0.00 0.00 64 1016.6
20260905210408 84 239 1.7 1.7 0.00 0.00 0.00 63 1016.6
20260905205908 85 238 0.9 0.9 0.00 0.00 0.00 63 1016.7
20260905205403 85 225 0.0 0.0 0.00 0.00 0.00 64 1016.7
20260905204901 85 238 1.7 1.7 0.00 0.00 0.00 63 1016.7
20260905204358 85 241 0.9 0.9 0.00 0.00 0.00 62 1016.8
20260905203856 85 148 0.9 1.7 0.00 0.00 0.00 68 1016.8
20260905203352 85 224 0.9 0.9 0.00 0.00 0.00 66 1016.8
20260905202849 85 231 0.0 0.9 0.00 0.00 0.00 66 1016.9
20260905202349 85 301 0.9 0.9 0.00 0.00 0.00 66 1017.0
20260905201845 84 176 0.9 0.9 0.00 0.00 0.00 67 1017.0
20260905201340 85 264 1.7 1.7 0.00 0.00 0.00 65 1017.0
20260905200839 85 240 0.9 0.9 0.00 0.00 0.00 65 1017.1
20260905200336 85 177 1.7 1.7 0.00 0.00 0.00 67 1017.3
20260905195833 84 223 0.0 0.0 0.00 0.00 0.00 66 1017.4
20260905195329 84 204 0.0 0.9 0.00 0.00 0.00 65 1017.4
20260905194825 84 119 0.0 0.9 0.00 0.00 0.00 66 1017.6
20260905194324 84 238 1.7 1.7 0.00 0.00 0.00 66 1017.5
20260905193823 83 231 0.9 0.9 0.00 0.00 0.00 66 1017.4
20260905193318 83 241 1.7 2.6 0.00 0.00 0.00 66 1017.5
20260905192814 83 250 2.6 2.6 0.00 0.00 0.00 67 1017.5
20260905192310 82 59 1.7 2.6 0.00 0.00 0.00 70 1017.4
20260905191809 82 171 1.7 2.6 0.00 0.00 0.00 69 1017.6
20260905191308 83 1 1.7 2.6 0.00 0.00 0.00 70 1017.4
20260905190807 82 220 0.0 0.0 0.00 0.00 0.00 70 1017.4
20260905190307 82 168 0.0 0.9 0.00 0.00 0.00 70 1017.4
20260905185805 82 247 1.7 2.6 0.00 0.00 0.00 70 1017.5
20260905185300 82 214 0.9 0.9 0.00 0.00 0.00 72 1017.4
20260905184754 81 245 1.7 2.6 0.00 0.00 0.00 71 1017.6
20260905184253 80 242 0.9 0.9 0.00 0.00 0.00 71 1017.5
20260905183753 80 241 0.9 1.7 0.00 0.00 0.00 73 1017.5
20260905183248 80 259 1.7 1.7 0.00 0.00 0.00 71 1017.5
20260905182748 80 224 0.0 0.0 0.00 0.00 0.00 72 1017.5
20260905182247 80 248 0.0 0.9 0.00 0.00 0.00 72 1017.6
20260905181743 79 245 1.7 2.6 0.00 0.00 0.00 74 1017.8
20260905181242 79 230 0.9 0.9 0.00 0.00 0.00 74 1017.8
20260905180737 79 190 1.7 1.7 0.00 0.00 0.00 73 1017.8
20260905180232 79 233 0.0 0.9 0.00 0.00 0.00 76 1017.8
20260905175733 79 221 1.7 1.7 0.00 0.00 0.00 74 1017.9
20260905175233 79 231 0.9 0.9 0.00 0.00 0.00 74 1018.0
20260905174728 78 224 1.7 1.7 0.00 0.00 0.00 75 1018.0
20260905174224 78 248 0.9 0.9 0.00 0.00 0.00 75 1018.1
20260905173720 78 246 1.7 1.7 0.00 0.00 0.00 76 1018.2
20260905173216 78 243 2.6 2.6 0.00 0.00 0.00 76 1018.1
20260905172715 78 232 0.9 0.9 0.00 0.00 0.00 77 1018.3
20260905172214 79 212 0.0 0.0 0.00 0.00 0.00 75 1018.4
20260905171710 80 243 1.7 1.7 0.00 0.00 0.00 75 1018.3
20260905171206 79 194 0.0 0.9 0.00 0.00 0.00 76 1018.4
20260905170704 78 224 0.0 0.0 0.00 0.00 0.00 79 1018.4
20260905170203 77 210 0.0 0.9 0.00 0.00 0.00 79 1018.5
20260905165703 77 252 1.7 1.7 0.00 0.00 0.00 79 1018.6
20260905165159 77 220 0.0 0.0 0.00 0.00 0.00 78 1018.6
20260905164653 76 216 0.0 0.0 0.00 0.00 0.00 81 1018.6
20260905164153 76 216 0.0 0.9 0.00 0.00 0.00 81 1018.6
20260905163649 76 220 0.0 0.9 0.00 0.00 0.00 81 1018.6
20260905163145 75 230 0.0 0.9 0.00 0.00 0.00 81 1018.7
20260905162642 75 233 0.0 0.9 0.00 0.00 0.00 83 1018.6